• In Italy
  • List of Countries
  • For 7 days
  • Water Temperature
  • Satellite Maps
  • Weather Map
  • Weather Widgets
  • user-avatar
    Login

    Hourly Weather Kendari

    Today, 24 November, Friday

    Time Temperature Precipitation Wind Pressure Humidity
    00:00 +27°C° 0.2 mm 1 mps 743 mmHg 89%
    01:00 +27°C° 0.2 mm 1 mps 743 mmHg 89%
    02:00 +27°C° 0 mm 1 mps 743 mmHg 90%
    03:00 +27°C° 0.1 mm 1 mps 743 mmHg 90%
    04:00 +26°C° 0.1 mm 1 mps 743 mmHg 91%
    05:00 +26°C° 0.1 mm 1 mps 743 mmHg 91%
    06:00 +28°C° 0.3 mm 1 mps 743 mmHg 85%
    07:00 +29°C° 0.3 mm 1 mps 743 mmHg 79%
    08:00 +31°C° 0 mm 1 mps 744 mmHg 71%
    09:00 +32°C° 1.1 mm 1 mps 744 mmHg 69%
    10:00 +33°C° 1.1 mm 1 mps 744 mmHg 67%
    11:00 +33°C° 1.1 mm 1 mps 744 mmHg 65%
    12:00 +33°C° 1.7 mm 1 mps 743 mmHg 69%
    13:00 +32°C° 1.7 mm 1 mps 743 mmHg 74%
    14:00 +31°C° 1.7 mm 1 mps 742 mmHg 78%
    15:00 +30°C° 1.3 mm 1 mps 742 mmHg 80%
    16:00 +30°C° 1.3 mm 1 mps 742 mmHg 82%
    17:00 +29°C° 1.3 mm 1 mps 742 mmHg 84%
    18:00 +27°C° 0.1 mm 0 mps 743 mmHg 85%
    19:00 +26°C° 0.1 mm 0 mps 743 mmHg 86%
    20:00 +25°C° 0.1 mm 0 mps 743 mmHg 87%
    21:00 +25°C° 0 mm 0 mps 744 mmHg 88%
    22:00 +25°C° 0 mm 0 mps 744 mmHg 88%
    23:00 +27°C° 0 mm 1 mps 744 mmHg 89%

    Tomorrow, 25 November, Saturday

    Time Temperature Precipitation Wind Pressure Humidity
    00:00 +27°C° 0.3 mm 1 mps 744 mmHg 89%
    01:00 +27°C° 0.3 mm 1 mps 743 mmHg 90%
    02:00 +27°C° 0.3 mm 1 mps 743 mmHg 90%
    03:00 +26°C° 0.6 mm 1 mps 743 mmHg 91%
    04:00 +26°C° 0.6 mm 1 mps 743 mmHg 91%
    05:00 +26°C° 0.6 mm 1 mps 743 mmHg 91%
    06:00 +27°C° 0.3 mm 1 mps 744 mmHg 86%
    07:00 +29°C° 0.3 mm 1 mps 744 mmHg 81%
    08:00 +30°C° 0.3 mm 1 mps 745 mmHg 76%
    09:00 +32°C° 0.2 mm 1 mps 744 mmHg 68%
    10:00 +34°C° 0.2 mm 1 mps 744 mmHg 61%
    11:00 +36°C° 0.2 mm 1 mps 744 mmHg 53%
    12:00 +35°C° 0.9 mm 1 mps 743 mmHg 59%
    13:00 +33°C° 0.9 mm 1 mps 743 mmHg 65%
    14:00 +32°C° 0.9 mm 2 mps 742 mmHg 71%
    15:00 +31°C° 1.6 mm 1 mps 742 mmHg 76%
    16:00 +30°C° 1.6 mm 1 mps 742 mmHg 81%
    17:00 +29°C° 1.6 mm 1 mps 742 mmHg 85%
    18:00 +29°C° 0.8 mm 1 mps 743 mmHg 86%
    19:00 +28°C° 0.8 mm 1 mps 743 mmHg 87%
    20:00 +27°C° 0.8 mm 1 mps 744 mmHg 88%
    21:00 +27°C° 0.2 mm 1 mps 744 mmHg 88%
    22:00 +27°C° 0.2 mm 1 mps 744 mmHg 88%
    23:00 +27°C° 0.2 mm 1 mps 744 mmHg 89%

    Day after tomorrow, 26 November, Sunday

    Time Temperature Precipitation Wind Pressure Humidity
    00:00 +27°C° 0.2 mm 1 mps 744 mmHg 89%
    01:00 +27°C° 0.2 mm 1 mps 743 mmHg 90%
    02:00 +27°C° 0.2 mm 1 mps 743 mmHg 90%
    03:00 +26°C° 0.3 mm 1 mps 743 mmHg 90%
    04:00 +26°C° 0.3 mm 2 mps 743 mmHg 90%
    05:00 +26°C° 0.3 mm 2 mps 743 mmHg 89%
    06:00 +27°C° 0.1 mm 2 mps 743 mmHg 84%
    07:00 +28°C° 0.1 mm 2 mps 744 mmHg 80%
    08:00 +30°C° 0.1 mm 1 mps 744 mmHg 75%
    09:00 +31°C° 0.1 mm 1 mps 744 mmHg 67%
    10:00 +33°C° 0.1 mm 1 mps 744 mmHg 60%
    11:00 +35°C° 0.1 mm 1 mps 744 mmHg 53%
    12:00 +34°C° 0.2 mm 1 mps 743 mmHg 57%
    13:00 +34°C° 0.2 mm 2 mps 742 mmHg 61%
    14:00 +34°C° 0.2 mm 2 mps 742 mmHg 65%
    15:00 +32°C° 0.6 mm 2 mps 741 mmHg 69%
    16:00 +31°C° 0.6 mm 2 mps 741 mmHg 74%
    17:00 +30°C° 0.6 mm 2 mps 741 mmHg 78%
    18:00 +30°C° 0.4 mm 2 mps 742 mmHg 81%
    19:00 +29°C° 0.4 mm 1 mps 742 mmHg 84%
    20:00 +28°C° 0.4 mm 1 mps 743 mmHg 87%
    21:00 +28°C° 0.4 mm 1 mps 743 mmHg 87%
    22:00 +28°C° 0.4 mm 1 mps 743 mmHg 88%
    23:00 +27°C° 0.4 mm 1 mps 743 mmHg 88%

    27 November, Monday

    Time Temperature Precipitation Wind Pressure Humidity
    00:00 +27°C° 1 mm 1 mps 743 mmHg 89%
    01:00 +27°C° 1 mm 1 mps 742 mmHg 89%
    02:00 +27°C° 1 mm 1 mps 742 mmHg 90%
    03:00 +27°C° 0.1 mm 1 mps 742 mmHg 90%
    04:00 +27°C° 0.1 mm 1 mps 742 mmHg 90%
    05:00 +27°C° 0.1 mm 1 mps 742 mmHg 90%
    06:00 +27°C° 0.1 mm 1 mps 742 mmHg 87%
    07:00 +28°C° 0.1 mm 1 mps 743 mmHg 84%
    08:00 +29°C° 0.1 mm 1 mps 743 mmHg 81%
    09:00 +30°C° 0.3 mm 1 mps 743 mmHg 76%
    10:00 +32°C° 0.3 mm 1 mps 743 mmHg 70%
    11:00 +33°C° 0.3 mm 1 mps 743 mmHg 65%
    12:00 +32°C° 1 mm 1 mps 742 mmHg 70%
    13:00 +31°C° 1 mm 1 mps 741 mmHg 75%
    14:00 +31°C° 1 mm 1 mps 741 mmHg 80%
    15:00 +30°C° 1 mm 1 mps 741 mmHg 83%
    16:00 +29°C° 1 mm 1 mps 741 mmHg 86%
    17:00 +28°C° 1 mm 1 mps 741 mmHg 89%
    18:00 +28°C° 0.1 mm 1 mps 741 mmHg 89%
    19:00 +28°C° 0.1 mm 1 mps 742 mmHg 90%
    20:00 +27°C° 0.1 mm 1 mps 743 mmHg 91%
    21:00 +27°C° 0.4 mm 1 mps 743 mmHg 91%
    22:00 +27°C° 0.4 mm 1 mps 743 mmHg 91%
    23:00 +27°C° 0.4 mm 1 mps 743 mmHg 92%

    28 November, Tuesday

    Time Temperature Precipitation Wind Pressure Humidity
    00:00 +27°C° 1 mm 1 mps 742 mmHg 92%
    01:00 +27°C° 1 mm 1 mps 742 mmHg 92%
    02:00 +26°C° 1 mm 1 mps 741 mmHg 92%
    03:00 +26°C° 0.7 mm 1 mps 741 mmHg 92%
    04:00 +26°C° 0.7 mm 1 mps 741 mmHg 92%
    05:00 +26°C° 0.7 mm 1 mps 742 mmHg 92%
    06:00 +27°C° 0.1 mm 1 mps 742 mmHg 89%
    07:00 +28°C° 0.1 mm 1 mps 743 mmHg 86%
    08:00 +29°C° 0.1 mm 1 mps 743 mmHg 83%
    09:00 +30°C° 0.1 mm 1 mps 743 mmHg 76%
    10:00 +32°C° 0.1 mm 1 mps 743 mmHg 69%
    11:00 +33°C° 0.1 mm 1 mps 743 mmHg 63%
    12:00 +33°C° 0.1 mm 1 mps 742 mmHg 63%
    13:00 +34°C° 0.1 mm 2 mps 741 mmHg 64%
    14:00 +32°C° 0.1 mm 2 mps 741 mmHg 65%
    15:00 +31°C° 0.4 mm 2 mps 741 mmHg 70%
    16:00 +30°C° 0.4 mm 2 mps 741 mmHg 76%
    17:00 +29°C° 0.4 mm 2 mps 741 mmHg 82%
    18:00 +29°C° 0.8 mm 1 mps 742 mmHg 83%
    19:00 +28°C° 0.8 mm 1 mps 742 mmHg 85%
    20:00 +28°C° 0.8 mm 1 mps 743 mmHg 87%
    21:00 +27°C° 1.7 mm 1 mps 743 mmHg 87%
    22:00 +27°C° 1.7 mm 1 mps 743 mmHg 88%
    23:00 +27°C° 1.7 mm 1 mps 743 mmHg 88%

    29 November, Wednesday

    Time Temperature Precipitation Wind Pressure Humidity
    00:00 +27°C° 0.9 mm 1 mps 743 mmHg 88%
    01:00 +27°C° 0.9 mm 1 mps 742 mmHg 88%
    02:00 +27°C° 0.9 mm 1 mps 742 mmHg 88%
    03:00 +27°C° 0.1 mm 1 mps 742 mmHg 88%
    04:00 +25°C° 0.1 mm 0 mps 742 mmHg 88%
    05:00 +25°C° 0.1 mm 0 mps 743 mmHg 88%
    06:00 +25°C° 0 mm 0 mps 743 mmHg 86%
    07:00 +28°C° 0 mm 1 mps 743 mmHg 84%
    08:00 +29°C° 0 mm 1 mps 744 mmHg 81%
    09:00 +30°C° 0.3 mm 1 mps 744 mmHg 76%
    10:00 +31°C° 0.3 mm 1 mps 743 mmHg 70%
    11:00 +32°C° 0.3 mm 1 mps 743 mmHg 65%
    12:00 +32°C° 0.6 mm 1 mps 742 mmHg 66%
    13:00 +32°C° 0.6 mm 2 mps 742 mmHg 67%
    14:00 +32°C° 0.6 mm 2 mps 741 mmHg 69%
    15:00 +31°C° 1 mm 2 mps 741 mmHg 73%
    16:00 +30°C° 1 mm 2 mps 741 mmHg 77%
    17:00 +30°C° 1 mm 1 mps 741 mmHg 81%
    18:00 +29°C° 0.9 mm 1 mps 742 mmHg 83%
    19:00 +28°C° 0.9 mm 1 mps 743 mmHg 85%
    20:00 +28°C° 0.9 mm 1 mps 743 mmHg 87%
    21:00 +27°C° 1.1 mm 1 mps 743 mmHg 87%
    22:00 +27°C° 1.1 mm 1 mps 743 mmHg 88%
    23:00 +27°C° 1.1 mm 1 mps 743 mmHg 88%
    Show more